Time,TemperatureF,DewpointF,PressureIn,WindDirection,WindDirectionDegrees,WindSpeedMPH,WindSpeedGustMPH,Humidity,HourlyPrecipIn,Conditions,Clouds,dailyrainin,SoftwareType,DateUTC
2013-06-06 00:01:00,65.6,45.3,30.05,NE,45,0.0,0.0,48,0.00,,,0.00,WUHU216HW,2013-06-06 04:01:00,
2013-06-06 00:07:00,65.4,45.8,30.05,ENE,68,0.0,0.0,49,0.00,,,0.00,WUHU216HW,2013-06-06 04:07:00,
2013-06-06 00:11:00,65.3,45.6,30.05,NE,45,0.0,0.0,49,0.00,,,0.00,WUHU216HW,2013-06-06 04:11:00,
2013-06-06 00:16:00,65.1,45.4,30.05,ENE,68,0.0,0.0,49,0.00,,,0.00,WUHU216HW,2013-06-06 04:16:00,
2013-06-06 00:21:00,64.9,45.8,30.05,ENE,68,0.8,1.1,50,0.00,,,0.00,WUHU216HW,2013-06-06 04:21:00,
2013-06-06 00:26:00,64.7,45.6,30.05,NE,45,0.0,1.1,50,0.00,,,0.00,WUHU216HW,2013-06-06 04:26:00,
2013-06-06 00:32:00,64.7,45.6,30.05,ESE,113,0.0,0.8,50,0.00,,,0.00,WUHU216HW,2013-06-06 04:32:00,
2013-06-06 00:37:00,64.5,45.9,30.04,ENE,68,0.0,0.0,51,0.00,,,0.00,WUHU216HW,2013-06-06 04:37:00,
2013-06-06 00:42:00,64.5,45.9,30.04,ENE,68,0.0,0.0,51,0.00,,,0.00,WUHU216HW,2013-06-06 04:42:00,
2013-06-06 00:47:00,64.4,45.8,30.04,NE,45,0.0,0.0,51,0.00,,,0.00,WUHU216HW,2013-06-06 04:47:00,
2013-06-06 00:52:00,64.2,46.1,30.04,NE,45,0.0,0.0,52,0.00,,,0.00,WUHU216HW,2013-06-06 04:52:00,
2013-06-06 00:57:00,64.2,46.1,30.04,NE,45,0.0,0.0,52,0.00,,,0.00,WUHU216HW,2013-06-06 04:57:00,
2013-06-06 01:02:00,64.2,46.1,30.04,ENE,68,0.0,0.0,52,0.00,,,0.00,WUHU216HW,2013-06-06 05:02:00,
2013-06-06 01:07:00,64.0,46.4,30.04,ENE,68,0.0,0.0,53,0.00,,,0.00,WUHU216HW,2013-06-06 05:07:00,
2013-06-06 01:12:00,64.0,46.4,30.04,ENE,68,0.0,0.0,53,0.00,,,0.00,WUHU216HW,2013-06-06 05:12:00,
2013-06-06 01:17:00,64.0,46.4,30.04,East,90,0.0,0.0,53,0.00,,,0.00,WUHU216HW,2013-06-06 05:17:00,
2013-06-06 01:22:00,63.6,46.6,30.03,ENE,68,0.0,0.0,54,0.00,,,0.00,WUHU216HW,2013-06-06 05:22:00,
2013-06-06 01:27:00,63.6,46.6,30.03,ENE,68,0.0,0.0,54,0.00,,,0.00,WUHU216HW,2013-06-06 05:27:00,
2013-06-06 01:32:00,63.5,46.4,30.03,SE,135,0.0,0.8,54,0.00,,,0.00,WUHU216HW,2013-06-06 05:32:00,
2013-06-06 01:37:00,63.3,46.7,30.03,ENE,68,0.0,0.8,55,0.00,,,0.00,WUHU216HW,2013-06-06 05:37:00,
2013-06-06 01:42:00,63.3,46.7,30.03,ENE,68,0.0,0.8,55,0.00,,,0.00,WUHU216HW,2013-06-06 05:42:00,
2013-06-06 01:47:00,63.3,46.7,30.03,ENE,68,0.0,0.8,55,0.00,,,0.00,WUHU216HW,2013-06-06 05:47:00,
2013-06-06 01:52:00,63.3,46.7,30.03,ENE,68,0.0,0.0,55,0.00,,,0.00,WUHU216HW,2013-06-06 05:52:00,
2013-06-06 01:57:00,63.3,46.7,30.03,ENE,68,0.0,0.0,55,0.00,,,0.00,WUHU216HW,2013-06-06 05:57:00,
2013-06-06 02:02:00,63.3,46.7,30.03,ENE,68,0.0,0.0,55,0.00,,,0.00,WUHU216HW,2013-06-06 06:02:00,
2013-06-06 02:07:00,63.1,46.6,30.03,ENE,68,0.0,1.3,55,0.00,,,0.00,WUHU216HW,2013-06-06 06:07:00,
2013-06-06 02:12:00,63.1,47.1,30.03,ENE,68,0.6,1.3,56,0.00,,,0.00,WUHU216HW,2013-06-06 06:12:00,
2013-06-06 02:17:00,63.1,47.1,30.03,ESE,113,4.9,4.9,56,0.00,,,0.00,WUHU216HW,2013-06-06 06:17:00,
2013-06-06 02:22:00,62.9,46.9,30.03,SE,135,0.0,4.9,56,0.00,,,0.00,WUHU216HW,2013-06-06 06:22:00,
2013-06-06 02:27:00,62.7,47.2,30.03,ESE,113,0.8,4.9,57,0.00,,,0.00,WUHU216HW,2013-06-06 06:27:00,
2013-06-06 02:32:00,62.7,47.2,30.03,East,90,0.0,0.8,57,0.00,,,0.00,WUHU216HW,2013-06-06 06:32:00,
2013-06-06 02:37:00,62.7,47.2,30.03,ESE,113,0.0,0.0,57,0.00,,,0.00,WUHU216HW,2013-06-06 06:37:00,
2013-06-06 02:42:00,62.6,47.5,30.03,ESE,113,0.0,0.0,58,0.00,,,0.00,WUHU216HW,2013-06-06 06:42:00,
2013-06-06 02:47:00,62.4,47.4,30.03,SE,135,0.0,0.0,58,0.00,,,0.00,WUHU216HW,2013-06-06 06:47:00,
2013-06-06 02:52:00,62.4,47.4,30.03,ESE,113,0.0,0.0,58,0.00,,,0.00,WUHU216HW,2013-06-06 06:52:00,
2013-06-06 02:57:00,62.4,47.4,30.03,ESE,113,0.8,0.8,58,0.00,,,0.00,WUHU216HW,2013-06-06 06:57:00,
2013-06-06 03:02:00,62.4,47.4,30.02,ESE,113,0.0,0.8,58,0.00,,,0.00,WUHU216HW,2013-06-06 07:02:00,
2013-06-06 03:07:00,62.2,47.7,30.02,ENE,68,0.0,0.0,59,0.00,,,0.00,WUHU216HW,2013-06-06 07:07:00,
2013-06-06 03:12:00,62.2,47.7,30.02,ESE,113,0.0,1.3,59,0.00,,,0.00,WUHU216HW,2013-06-06 07:12:00,
2013-06-06 03:17:00,62.2,47.7,30.02,East,90,0.0,1.3,59,0.00,,,0.00,WUHU216HW,2013-06-06 07:17:00,
2013-06-06 03:22:00,62.2,47.7,30.02,ESE,113,0.0,0.0,59,0.00,,,0.00,WUHU216HW,2013-06-06 07:22:00,
2013-06-06 03:27:00,62.2,48.2,30.02,SE,135,0.0,0.0,60,0.00,,,0.00,WUHU216HW,2013-06-06 07:27:00,
2013-06-06 03:32:00,62.0,48.0,30.02,SE,135,0.0,0.0,60,0.00,,,0.00,WUHU216HW,2013-06-06 07:32:00,
2013-06-06 03:37:00,61.8,47.9,30.02,SSE,158,0.0,0.0,60,0.00,,,0.00,WUHU216HW,2013-06-06 07:37:00,
2013-06-06 03:42:00,61.8,48.3,30.02,ESE,113,0.0,0.0,61,0.00,,,0.00,WUHU216HW,2013-06-06 07:42:00,
2013-06-06 03:47:00,61.7,48.1,30.01,East,90,0.0,2.0,61,0.00,,,0.00,WUHU216HW,2013-06-06 07:47:00,
2013-06-06 03:52:00,61.7,48.1,30.01,ENE,68,0.0,2.0,61,0.00,,,0.00,WUHU216HW,2013-06-06 07:52:00,
2013-06-06 03:57:00,61.7,48.1,30.01,East,90,0.0,0.0,61,0.00,,,0.00,WUHU216HW,2013-06-06 07:57:00,
2013-06-06 04:02:00,61.7,48.5,30.01,ENE,68,1.1,1.1,62,0.00,,,0.00,WUHU216HW,2013-06-06 08:02:00,
2013-06-06 04:07:00,61.7,48.5,30.01,SE,135,0.0,1.1,62,0.00,,,0.00,WUHU216HW,2013-06-06 08:07:00,
2013-06-06 04:12:00,61.5,48.4,30.01,ENE,68,0.0,1.1,62,0.00,,,0.00,WUHU216HW,2013-06-06 08:12:00,
2013-06-06 04:17:00,61.5,48.4,30.00,ENE,68,0.0,0.0,62,0.00,,,0.00,WUHU216HW,2013-06-06 08:17:00,
2013-06-06 04:22:00,61.5,48.4,30.00,ENE,68,0.0,0.0,62,0.00,,,0.00,WUHU216HW,2013-06-06 08:22:00,
2013-06-06 04:27:00,61.5,48.8,30.00,ENE,68,0.0,0.0,63,0.00,,,0.00,WUHU216HW,2013-06-06 08:27:00,
2013-06-06 04:32:00,61.3,48.6,30.00,ESE,113,0.0,0.0,63,0.00,,,0.00,WUHU216HW,2013-06-06 08:32:00,
2013-06-06 04:37:00,61.1,48.9,30.00,East,90,0.0,0.0,64,0.00,,,0.00,WUHU216HW,2013-06-06 08:37:00,
2013-06-06 04:42:00,61.1,48.9,30.00,NE,45,0.0,0.0,64,0.00,,,0.00,WUHU216HW,2013-06-06 08:42:00,
2013-06-06 04:47:00,60.9,49.1,30.00,NE,45,0.0,0.0,65,0.00,,,0.00,WUHU216HW,2013-06-06 08:47:00,
2013-06-06 04:52:00,60.9,49.1,29.99,ENE,68,0.6,2.2,65,0.00,,,0.00,WUHU216HW,2013-06-06 08:52:00,
2013-06-06 04:57:00,60.9,49.1,29.99,ESE,113,0.0,2.2,65,0.00,,,0.00,WUHU216HW,2013-06-06 08:57:00,
2013-06-06 05:02:00,60.9,49.5,29.99,ENE,68,0.0,0.0,66,0.00,,,0.00,WUHU216HW,2013-06-06 09:02:00,
2013-06-06 05:07:00,60.6,49.2,29.99,ESE,113,0.0,0.0,66,0.00,,,0.00,WUHU216HW,2013-06-06 09:07:00,
2013-06-06 05:12:00,60.6,49.2,29.99,SE,135,5.1,5.1,66,0.00,,,0.00,WUHU216HW,2013-06-06 09:12:00,
2013-06-06 05:17:00,60.4,49.4,29.99,East,90,0.0,5.1,67,0.00,,,0.00,WUHU216HW,2013-06-06 09:17:00,
2013-06-06 05:22:00,60.4,49.4,29.99,ESE,113,0.0,5.1,67,0.00,,,0.00,WUHU216HW,2013-06-06 09:22:00,
2013-06-06 05:27:00,60.4,49.4,29.99,SSE,158,0.0,0.0,67,0.00,,,0.00,WUHU216HW,2013-06-06 09:27:00,
2013-06-06 05:32:00,60.0,49.5,29.99,ESE,113,0.0,2.0,68,0.00,,,0.00,WUHU216HW,2013-06-06 09:32:00,
2013-06-06 05:37:00,59.7,49.5,29.99,SE,135,0.0,2.0,69,0.00,,,0.00,WUHU216HW,2013-06-06 09:37:00,
2013-06-06 05:42:00,59.5,49.8,29.99,East,90,0.0,0.0,70,0.00,,,0.00,WUHU216HW,2013-06-06 09:42:00,
2013-06-06 05:47:00,59.3,49.6,29.99,ESE,113,0.0,0.0,70,0.00,,,0.00,WUHU216HW,2013-06-06 09:47:00,
2013-06-06 05:52:00,59.1,49.4,29.98,ENE,68,0.0,0.0,70,0.00,,,0.00,WUHU216HW,2013-06-06 09:52:00,
2013-06-06 05:57:00,59.1,49.4,29.98,ENE,68,0.0,0.0,70,0.00,,,0.00,WUHU216HW,2013-06-06 09:57:00,
2013-06-06 06:02:00,59.1,49.4,29.99,ESE,113,1.1,1.1,70,0.00,,,0.00,WUHU216HW,2013-06-06 10:02:00,
2013-06-06 06:07:00,59.1,49.4,29.98,ESE,113,2.9,2.9,70,0.00,,,0.00,WUHU216HW,2013-06-06 10:07:00,
2013-06-06 06:12:00,59.0,49.2,29.98,ENE,68,0.0,2.9,70,0.00,,,0.00,WUHU216HW,2013-06-06 10:12:00,
2013-06-06 06:17:00,59.0,49.2,29.98,East,90,0.0,2.9,70,0.00,,,0.00,WUHU216HW,2013-06-06 10:17:00,
2013-06-06 06:22:00,59.0,49.2,29.98,East,90,0.0,0.0,70,0.00,,,0.00,WUHU216HW,2013-06-06 10:22:00,
2013-06-06 06:27:00,58.8,49.1,29.98,East,90,0.0,0.0,70,0.00,,,0.00,WUHU216HW,2013-06-06 10:27:00,
2013-06-06 06:32:00,58.8,49.1,29.98,ENE,68,0.8,0.8,70,0.00,,,0.00,WUHU216HW,2013-06-06 10:32:00,
2013-06-06 06:37:00,58.8,48.6,29.98,East,90,0.0,0.8,69,0.00,,,0.00,WUHU216HW,2013-06-06 10:37:00,
2013-06-06 06:42:00,58.8,48.6,29.98,ENE,68,0.0,0.0,69,0.00,,,0.00,WUHU216HW,2013-06-06 10:42:00,
2013-06-06 06:47:00,58.8,48.6,29.98,ENE,68,0.0,0.0,69,0.00,,,0.00,WUHU216HW,2013-06-06 10:47:00,
2013-06-06 06:52:00,59.0,48.6,29.98,ENE,68,0.0,0.0,69,0.00,,,0.00,WUHU216HW,2013-06-06 10:52:00,
2013-06-06 06:57:00,59.0,48.8,29.98,ENE,68,0.0,0.0,69,0.00,,,0.00,WUHU216HW,2013-06-06 10:57:00,
2013-06-06 07:02:00,59.0,48.8,29.98,ESE,113,0.0,0.0,69,0.00,,,0.00,WUHU216HW,2013-06-06 11:02:00,
2013-06-06 07:07:00,58.8,48.6,29.98,ESE,113,0.0,1.5,69,0.00,,,0.00,WUHU216HW,2013-06-06 11:07:00,
2013-06-06 07:12:00,58.8,48.6,29.98,East,90,0.0,1.5,69,0.00,,,0.00,WUHU216HW,2013-06-06 11:12:00,
2013-06-06 07:17:00,59.0,48.8,29.98,ESE,113,0.0,0.0,69,0.00,,,0.00,WUHU216HW,2013-06-06 11:17:00,
2013-06-06 07:22:00,58.8,48.6,29.98,North,0,0.0,1.1,69,0.00,,,0.00,WUHU216HW,2013-06-06 11:22:00,
2013-06-06 07:27:00,58.8,48.6,29.98,East,90,1.1,1.3,69,0.00,,,0.00,WUHU216HW,2013-06-06 11:27:00,
2013-06-06 07:32:00,58.8,48.6,29.98,ENE,68,0.0,1.3,69,0.00,,,0.00,WUHU216HW,2013-06-06 11:32:00,
2013-06-06 07:37:00,58.8,48.6,29.98,ESE,113,0.0,1.1,69,0.00,,,0.00,WUHU216HW,2013-06-06 11:37:00,
2013-06-06 07:42:00,58.8,48.6,29.98,ENE,68,0.0,1.1,69,0.00,,,0.00,WUHU216HW,2013-06-06 11:42:00,
2013-06-06 07:47:00,58.8,48.6,29.98,ENE,68,0.0,0.8,69,0.00,,,0.00,WUHU216HW,2013-06-06 11:47:00,
2013-06-06 07:52:00,59.1,49.0,29.98,ENE,68,0.0,0.8,69,0.00,,,0.00,WUHU216HW,2013-06-06 11:52:00,
2013-06-06 07:57:00,59.1,49.0,29.98,ENE,68,0.0,0.0,69,0.00,,,0.00,WUHU216HW,2013-06-06 11:57:00,
2013-06-06 08:02:00,59.1,49.0,29.98,ESE,113,4.4,4.4,69,0.00,,,0.00,WUHU216HW,2013-06-06 12:02:00,
2013-06-06 08:07:00,59.1,49.0,29.99,ESE,113,4.0,4.4,69,0.00,,,0.00,WUHU216HW,2013-06-06 12:07:00,
2013-06-06 08:12:00,59.1,49.0,29.99,ESE,113,0.0,4.0,69,0.00,,,0.00,WUHU216HW,2013-06-06 12:12:00,
2013-06-06 08:17:00,59.1,49.0,29.99,SE,135,1.1,4.0,69,0.00,,,0.00,WUHU216HW,2013-06-06 12:17:00,
2013-06-06 08:22:00,59.1,49.0,29.99,South,180,0.0,1.1,69,0.00,,,0.00,WUHU216HW,2013-06-06 12:22:00,
2013-06-06 08:27:00,59.3,48.8,29.98,ESE,113,0.0,0.0,68,0.00,,,0.00,WUHU216HW,2013-06-06 12:27:00,
2013-06-06 08:32:00,59.5,48.9,29.99,SE,135,1.3,1.3,68,0.00,,,0.00,WUHU216HW,2013-06-06 12:32:00,
2013-06-06 08:37:00,59.5,48.9,29.99,ESE,113,0.0,1.3,68,0.00,,,0.00,WUHU216HW,2013-06-06 12:37:00,
2013-06-06 08:42:00,59.5,48.9,29.99,SE,135,0.0,0.8,68,0.00,,,0.00,WUHU216HW,2013-06-06 12:42:00,
2013-06-06 08:47:00,59.5,48.9,29.99,ENE,68,0.0,0.0,68,0.00,,,0.00,WUHU216HW,2013-06-06 12:47:00,
2013-06-06 08:52:00,59.7,49.1,30.00,ESE,113,0.0,0.0,68,0.00,,,0.00,WUHU216HW,2013-06-06 12:52:00,
2013-06-06 08:57:00,59.7,48.7,30.00,East,90,0.0,0.0,67,0.00,,,0.00,WUHU216HW,2013-06-06 12:57:00,
2013-06-06 09:02:00,59.7,48.7,30.00,ENE,68,0.0,0.0,67,0.00,,,0.00,WUHU216HW,2013-06-06 13:02:00,
2013-06-06 09:07:00,59.9,48.9,30.00,ESE,113,0.6,0.6,67,0.00,,,0.00,WUHU216HW,2013-06-06 13:07:00,
2013-06-06 09:12:00,60.0,49.1,29.99,SE,135,0.0,0.6,67,0.00,,,0.00,WUHU216HW,2013-06-06 13:12:00,
2013-06-06 09:17:00,60.0,49.1,29.99,SE,135,0.0,0.0,67,0.00,,,0.00,WUHU216HW,2013-06-06 13:17:00,
2013-06-06 09:22:00,60.4,49.0,29.99,NE,45,0.0,2.0,66,0.00,,,0.00,WUHU216HW,2013-06-06 13:22:00,
2013-06-06 09:27:00,60.9,49.5,29.99,East,90,0.0,2.0,66,0.00,,,0.00,WUHU216HW,2013-06-06 13:27:00,
2013-06-06 09:32:00,61.1,49.7,29.99,SE,135,0.0,0.0,66,0.00,,,0.00,WUHU216HW,2013-06-06 13:32:00,
2013-06-06 09:37:00,61.3,49.4,30.00,East,90,0.0,0.0,65,0.00,,,0.00,WUHU216HW,2013-06-06 13:37:00,
2013-06-06 09:42:00,61.3,49.4,29.99,NE,45,0.0,0.0,65,0.00,,,0.00,WUHU216HW,2013-06-06 13:42:00,
2013-06-06 09:47:00,61.5,49.6,29.99,ESE,113,0.0,0.0,65,0.00,,,0.00,WUHU216HW,2013-06-06 13:47:00,
2013-06-06 09:52:00,61.7,49.8,30.00,ESE,113,0.0,0.0,65,0.00,,,0.00,WUHU216HW,2013-06-06 13:52:00,
2013-06-06 09:57:00,61.8,49.9,30.00,SE,135,2.0,2.0,65,0.00,,,0.00,WUHU216HW,2013-06-06 13:57:00,
2013-06-06 10:03:00,62.0,50.1,29.99,ESE,113,0.0,2.0,65,0.00,,,0.00,WUHU216HW,2013-06-06 14:03:00,
2013-06-06 10:08:00,62.6,50.2,30.00,East,90,0.0,2.0,64,0.00,,,0.00,WUHU216HW,2013-06-06 14:08:00,
2013-06-06 10:13:00,63.1,50.7,30.00,ENE,68,0.0,0.0,64,0.00,,,0.00,WUHU216HW,2013-06-06 14:13:00,
2013-06-06 10:18:00,63.5,51.0,30.00,ENE,68,0.0,0.0,64,0.00,,,0.00,WUHU216HW,2013-06-06 14:18:00,
2013-06-06 10:23:00,64.0,51.1,30.00,ESE,113,0.8,0.8,63,0.00,,,0.00,WUHU216HW,2013-06-06 14:23:00,
2013-06-06 10:28:00,64.2,50.8,30.00,ESE,113,0.0,0.8,62,0.00,,,0.00,WUHU216HW,2013-06-06 14:28:00,
2013-06-06 10:33:00,64.5,50.7,29.99,ENE,68,0.0,0.8,61,0.00,,,0.00,WUHU216HW,2013-06-06 14:33:00,
2013-06-06 10:38:00,65.1,50.9,29.99,NE,45,0.0,1.5,60,0.00,,,0.00,WUHU216HW,2013-06-06 14:38:00,
2013-06-06 10:43:00,65.4,51.2,29.99,ESE,113,0.0,1.5,60,0.00,,,0.00,WUHU216HW,2013-06-06 14:43:00,
2013-06-06 10:48:00,66.0,51.8,29.99,NNE,23,0.0,0.0,60,0.00,,,0.00,WUHU216HW,2013-06-06 14:48:00,
2013-06-06 10:53:00,66.5,51.3,29.99,East,90,0.0,0.0,58,0.00,,,0.00,WUHU216HW,2013-06-06 14:53:00,
2013-06-06 10:58:00,66.7,51.4,29.99,East,90,0.0,0.0,58,0.00,,,0.00,WUHU216HW,2013-06-06 14:58:00,
2013-06-06 11:03:00,67.1,51.3,29.99,NE,45,0.0,0.0,57,0.00,,,0.00,WUHU216HW,2013-06-06 15:03:00,
2013-06-06 11:08:00,68.1,51.8,29.99,East,90,0.0,0.0,56,0.00,,,0.00,WUHU216HW,2013-06-06 15:08:00,
2013-06-06 11:13:00,68.5,51.6,29.99,NE,45,0.0,0.0,55,0.00,,,0.00,WUHU216HW,2013-06-06 15:13:00,
2013-06-06 11:18:00,68.7,51.3,29.99,NE,45,0.0,0.0,54,0.00,,,0.00,WUHU216HW,2013-06-06 15:18:00,
2013-06-06 11:23:00,69.0,51.1,29.99,NNE,23,0.0,0.0,53,0.00,,,0.00,WUHU216HW,2013-06-06 15:23:00,
2013-06-06 11:28:00,69.2,50.8,29.99,NE,45,3.1,3.1,52,0.00,,,0.00,WUHU216HW,2013-06-06 15:28:00,
2013-06-06 11:33:00,69.2,50.8,29.98,NE,45,0.0,3.1,52,0.00,,,0.00,WUHU216HW,2013-06-06 15:33:00,
2013-06-06 11:38:00,69.6,51.1,29.98,NE,45,0.0,1.3,52,0.00,,,0.00,WUHU216HW,2013-06-06 15:38:00,
2013-06-06 11:43:00,69.6,51.1,29.98,NE,45,0.0,0.0,52,0.00,,,0.00,WUHU216HW,2013-06-06 15:43:00,
2013-06-06 11:48:00,69.9,50.5,29.98,NNW,338,0.6,0.6,50,0.00,,,0.00,WUHU216HW,2013-06-06 15:48:00,
2013-06-06 11:53:00,69.9,49.9,29.98,NE,45,0.0,0.6,49,0.00,,,0.00,WUHU216HW,2013-06-06 15:53:00,
2013-06-06 11:58:00,70.1,50.0,29.98,NE,45,0.0,0.0,49,0.00,,,0.00,WUHU216HW,2013-06-06 15:58:00,
2013-06-06 12:03:00,70.3,50.2,29.98,NE,45,0.0,0.0,49,0.00,,,0.00,WUHU216HW,2013-06-06 16:03:00,
2013-06-06 12:08:00,70.8,50.7,29.98,NE,45,0.0,0.0,49,0.00,,,0.00,WUHU216HW,2013-06-06 16:08:00,
2013-06-06 12:13:00,71.0,50.3,29.98,NE,45,0.0,0.0,48,0.00,,,0.00,WUHU216HW,2013-06-06 16:13:00,
2013-06-06 12:18:00,71.4,50.0,29.98,ENE,68,0.0,0.8,47,0.00,,,0.00,WUHU216HW,2013-06-06 16:18:00,
2013-06-06 12:23:00,71.7,50.3,29.98,NNE,23,0.0,0.8,47,0.00,,,0.00,WUHU216HW,2013-06-06 16:23:00,
2013-06-06 12:28:00,72.1,50.0,29.98,NE,45,1.1,1.1,46,0.00,,,0.00,WUHU216HW,2013-06-06 16:28:00,
2013-06-06 12:33:00,72.3,50.2,29.98,ENE,68,0.0,1.1,46,0.00,,,0.00,WUHU216HW,2013-06-06 16:33:00,
2013-06-06 12:38:00,72.1,49.4,29.98,ENE,68,0.0,1.5,46,0.00,,,0.00,WUHU216HW,2013-06-06 16:38:00,
2013-06-06 12:43:00,72.3,50.2,29.98,NE,45,0.0,1.5,46,0.00,,,0.00,WUHU216HW,2013-06-06 16:43:00,
2013-06-06 12:48:00,72.6,50.5,29.98,NE,45,0.0,0.6,46,0.00,,,0.00,WUHU216HW,2013-06-06 16:48:00,
2013-06-06 12:53:00,73.2,50.4,29.98,ENE,68,0.0,0.0,45,0.00,,,0.00,WUHU216HW,2013-06-06 16:53:00,
2013-06-06 12:58:00,73.4,50.6,29.98,NE,45,0.0,0.0,45,0.00,,,0.00,WUHU216HW,2013-06-06 16:58:00,
2013-06-06 13:03:00,73.7,50.9,29.98,ENE,68,0.0,0.8,45,0.00,,,0.00,WUHU216HW,2013-06-06 17:03:00,
2013-06-06 13:08:00,74.1,51.3,29.98,NNE,23,0.0,0.8,45,0.00,,,0.00,WUHU216HW,2013-06-06 17:08:00,
2013-06-06 13:13:00,74.3,50.8,29.99,ENE,68,0.8,1.1,44,0.00,,,0.00,WUHU216HW,2013-06-06 17:13:00,
2013-06-06 13:18:00,74.1,50.1,29.98,NNE,23,0.0,1.1,43,0.00,,,0.00,WUHU216HW,2013-06-06 17:18:00,
2013-06-06 13:23:00,74.1,50.7,29.98,North,0,1.3,1.3,44,0.00,,,0.00,WUHU216HW,2013-06-06 17:23:00,
2013-06-06 13:28:00,73.9,50.5,29.98,NE,45,0.0,1.3,44,0.00,,,0.00,WUHU216HW,2013-06-06 17:28:00,
2013-06-06 13:33:00,73.9,50.5,29.98,NNE,23,0.0,1.3,44,0.00,,,0.00,WUHU216HW,2013-06-06 17:33:00,
2013-06-06 13:38:00,73.5,51.3,29.98,NNE,23,0.0,0.0,46,0.00,,,0.00,WUHU216HW,2013-06-06 17:38:00,
2013-06-06 13:43:00,73.4,51.8,29.98,North,0,0.0,0.0,47,0.00,,,0.00,WUHU216HW,2013-06-06 17:43:00,
2013-06-06 13:48:00,73.2,52.2,29.98,NW,315,2.9,3.3,48,0.00,,,0.00,WUHU216HW,2013-06-06 17:48:00,
2013-06-06 13:53:00,72.6,51.7,29.99,North,0,0.0,3.3,48,0.00,,,0.00,WUHU216HW,2013-06-06 17:53:00,
2013-06-06 13:58:00,72.3,52.0,29.99,North,0,0.0,2.9,49,0.00,,,0.00,WUHU216HW,2013-06-06 17:58:00,
2013-06-06 14:03:00,72.1,52.4,29.99,North,0,0.0,0.0,50,0.00,,,0.00,WUHU216HW,2013-06-06 18:03:00,
2013-06-06 14:08:00,71.6,51.9,29.98,North,0,0.0,0.0,50,0.00,,,0.00,WUHU216HW,2013-06-06 18:08:00,
2013-06-06 14:13:00,71.4,52.3,29.99,North,0,0.0,2.9,51,0.00,,,0.00,WUHU216HW,2013-06-06 18:13:00,
2013-06-06 14:18:00,70.8,51.8,29.98,NNE,23,0.0,2.9,51,0.00,,,0.00,WUHU216HW,2013-06-06 18:18:00,
2013-06-06 14:23:00,70.3,51.8,29.98,NNE,23,1.5,2.0,52,0.00,,,0.00,WUHU216HW,2013-06-06 18:23:00,
2013-06-06 14:28:00,69.9,51.5,29.99,North,0,0.0,2.0,52,0.00,,,0.00,WUHU216HW,2013-06-06 18:28:00,
2013-06-06 14:33:00,69.6,51.5,29.99,NNE,23,0.0,1.5,53,0.00,,,0.00,WUHU216HW,2013-06-06 18:33:00,
2013-06-06 14:38:00,68.9,51.0,29.98,NNE,23,0.0,0.0,53,0.00,,,0.00,WUHU216HW,2013-06-06 18:38:00,
2013-06-06 14:43:00,68.5,51.6,29.99,NNE,23,0.0,0.0,55,0.00,,,0.00,WUHU216HW,2013-06-06 18:43:00,
2013-06-06 14:48:00,68.1,51.8,29.98,NNE,23,0.0,0.0,56,0.00,,,0.00,WUHU216HW,2013-06-06 18:48:00,
2013-06-06 14:53:00,67.2,51.9,29.98,NNE,23,0.0,0.0,58,0.00,,,0.00,WUHU216HW,2013-06-06 18:53:00,
2013-06-06 14:58:00,67.1,52.3,29.98,North,0,0.0,0.6,59,0.00,,,0.00,WUHU216HW,2013-06-06 18:58:00,
2013-06-06 15:03:00,66.9,53.3,29.98,North,0,0.0,2.9,60,0.00,,,0.00,WUHU216HW,2013-06-06 19:03:00,
2013-06-06 15:08:00,67.6,54.1,29.98,NNE,23,0.0,2.9,62,0.00,,,0.00,WUHU216HW,2013-06-06 19:08:00,
2013-06-06 15:13:00,68.7,55.5,29.97,NNE,23,0.0,3.3,63,0.00,,,0.00,WUHU216HW,2013-06-06 19:13:00,
2013-06-06 15:18:00,69.9,55.9,29.97,ENE,68,1.1,4.4,61,0.00,,,0.00,WUHU216HW,2013-06-06 19:18:00,
2013-06-06 15:23:00,70.8,56.3,29.97,North,0,1.7,4.4,60,0.00,,,0.00,WUHU216HW,2013-06-06 19:23:00,
2013-06-06 15:28:00,71.4,55.8,29.97,NNE,23,0.0,4.2,58,0.00,,,0.00,WUHU216HW,2013-06-06 19:28:00,
2013-06-06 15:33:00,72.3,55.9,29.98,NNW,338,5.1,5.1,57,0.00,,,0.00,WUHU216HW,2013-06-06 19:33:00,
2013-06-06 15:34:00,72.3,56.1,29.98,NNW,338,5.1,5.1,57,0.00,,,0.00,WUHU216HW,2013-06-06 19:34:00,
2013-06-06 15:39:00,72.3,56.1,29.98,NE,45,0.0,5.1,57,0.00,,,0.00,WUHU216HW,2013-06-06 19:39:00,
2013-06-06 15:44:00,72.3,55.1,29.98,NNW,338,0.6,5.1,55,0.00,,,0.00,WUHU216HW,2013-06-06 19:44:00,
2013-06-06 15:49:00,72.5,55.3,29.98,NNE,23,0.0,0.6,55,0.00,,,0.00,WUHU216HW,2013-06-06 19:49:00,
2013-06-06 15:54:00,73.2,55.9,29.97,NE,45,0.0,0.6,55,0.00,,,0.00,WUHU216HW,2013-06-06 19:54:00,
2013-06-06 15:59:00,74.4,56.6,29.97,NNE,23,0.0,2.6,54,0.00,,,0.00,WUHU216HW,2013-06-06 19:59:00,
2013-06-06 16:04:00,75.2,56.9,29.97,North,0,0.0,2.6,53,0.00,,,0.00,WUHU216HW,2013-06-06 20:04:00,
2013-06-06 16:09:00,75.9,57.0,29.97,NNW,338,3.1,3.1,52,0.00,,,0.00,WUHU216HW,2013-06-06 20:09:00,
2013-06-06 16:14:00,77.0,57.5,29.97,NNE,23,0.0,3.1,51,0.00,,,0.00,WUHU216HW,2013-06-06 20:14:00,
2013-06-06 16:19:00,77.5,57.5,29.96,NNE,23,6.0,6.0,50,0.00,,,0.00,WUHU216HW,2013-06-06 20:19:00,
2013-06-06 16:24:00,78.4,57.7,29.96,North,0,0.8,6.0,49,0.00,,,0.00,WUHU216HW,2013-06-06 20:24:00,
2013-06-06 16:29:00,79.1,57.7,29.96,NNE,23,0.6,6.0,48,0.00,,,0.00,WUHU216HW,2013-06-06 20:29:00,
2013-06-06 16:34:00,79.1,57.7,29.96,NNE,23,0.0,2.4,48,0.00,,,0.00,WUHU216HW,2013-06-06 20:34:00,
2013-06-06 16:39:00,79.1,57.7,29.96,NNW,338,0.8,0.8,48,0.00,,,0.00,WUHU216HW,2013-06-06 20:39:00,
2013-06-06 16:44:00,79.5,57.4,29.96,NNE,23,0.0,1.5,47,0.00,,,0.00,WUHU216HW,2013-06-06 20:44:00,
2013-06-06 16:49:00,80.0,57.9,29.96,NE,45,0.0,1.5,47,0.00,,,0.00,WUHU216HW,2013-06-06 20:49:00,
2013-06-06 16:54:00,80.4,57.6,29.97,North,0,6.4,6.4,46,0.00,,,0.00,WUHU216HW,2013-06-06 20:54:00,
2013-06-06 16:59:00,80.0,57.3,29.97,NNW,338,4.0,6.4,46,0.00,,,0.00,WUHU216HW,2013-06-06 20:59:00,
2013-06-06 17:04:00,80.0,57.3,29.97,ENE,68,0.6,5.8,46,0.00,,,0.00,WUHU216HW,2013-06-06 21:04:00,
2013-06-06 17:09:00,79.7,57.0,29.97,North,0,1.3,4.0,46,0.00,,,0.00,WUHU216HW,2013-06-06 21:09:00,
2013-06-06 17:14:00,78.8,55.5,29.97,NNW,338,2.4,2.4,45,0.00,,,0.00,WUHU216HW,2013-06-06 21:14:00,
2013-06-06 17:19:00,78.0,55.5,29.97,North,0,0.0,2.4,46,0.00,,,0.00,WUHU216HW,2013-06-06 21:19:00,
2013-06-06 17:24:00,77.3,54.8,29.97,NE,45,0.0,4.2,46,0.00,,,0.00,WUHU216HW,2013-06-06 21:24:00,
2013-06-06 17:29:00,76.2,54.5,29.97,North,0,3.8,4.2,47,0.00,,,0.00,WUHU216HW,2013-06-06 21:29:00,
2013-06-06 17:34:00,75.3,54.3,29.98,NNE,23,0.0,3.8,48,0.00,,,0.00,WUHU216HW,2013-06-06 21:34:00,
2013-06-06 17:39:00,74.8,53.8,29.98,North,0,0.0,3.8,48,0.00,,,0.00,WUHU216HW,2013-06-06 21:39:00,
2013-06-06 17:44:00,73.7,53.3,29.98,North,0,2.4,2.4,49,0.00,,,0.00,WUHU216HW,2013-06-06 21:44:00,
2013-06-06 17:49:00,72.8,53.1,29.98,NNE,23,0.0,2.4,50,0.00,,,0.00,WUHU216HW,2013-06-06 21:49:00,
2013-06-06 17:54:00,72.3,53.1,29.98,NNW,338,2.4,2.4,51,0.00,,,0.00,WUHU216HW,2013-06-06 21:54:00,
2013-06-06 17:59:00,71.4,52.8,29.98,North,0,0.0,2.4,52,0.00,,,0.00,WUHU216HW,2013-06-06 21:59:00,
2013-06-06 18:04:00,71.2,52.6,29.98,NNE,23,0.0,0.0,52,0.00,,,0.00,WUHU216HW,2013-06-06 22:04:00,
2013-06-06 18:09:00,70.8,52.8,29.98,NNE,23,0.0,0.0,53,0.00,,,0.00,WUHU216HW,2013-06-06 22:09:00,
2013-06-06 18:14:00,70.7,52.6,29.98,North,0,0.0,0.0,53,0.00,,,0.00,WUHU216HW,2013-06-06 22:14:00,
2013-06-06 18:19:00,70.3,52.3,29.98,North,0,0.0,0.0,53,0.00,,,0.00,WUHU216HW,2013-06-06 22:19:00,
2013-06-06 18:24:00,69.9,52.5,29.98,NNE,23,0.0,0.0,54,0.00,,,0.00,WUHU216HW,2013-06-06 22:24:00,
2013-06-06 18:29:00,69.6,52.1,29.98,NNE,23,0.0,3.8,54,0.00,,,0.00,WUHU216HW,2013-06-06 22:29:00,
2013-06-06 18:34:00,69.0,51.6,29.98,North,0,0.0,3.8,54,0.00,,,0.00,WUHU216HW,2013-06-06 22:34:00,
2013-06-06 18:39:00,68.1,51.3,29.98,North,0,5.5,5.5,55,0.00,,,0.00,WUHU216HW,2013-06-06 22:39:00,
2013-06-06 18:44:00,67.6,51.3,29.97,NE,45,0.0,5.5,56,0.00,,,0.00,WUHU216HW,2013-06-06 22:44:00,
2013-06-06 18:49:00,66.9,51.1,29.97,NNE,23,0.0,5.5,57,0.00,,,0.00,WUHU216HW,2013-06-06 22:49:00,
2013-06-06 18:54:00,66.3,51.3,29.98,North,0,5.3,5.3,58,0.00,,,0.00,WUHU216HW,2013-06-06 22:54:00,
2013-06-06 18:59:00,66.0,51.3,29.98,NNE,23,0.8,5.3,59,0.00,,,0.00,WUHU216HW,2013-06-06 22:59:00,
2013-06-06 19:04:00,65.8,51.6,29.98,NNW,338,0.0,5.3,60,0.00,,,0.00,WUHU216HW,2013-06-06 23:04:00,
2013-06-06 19:09:00,65.4,51.2,29.98,North,0,0.0,2.0,60,0.00,,,0.00,WUHU216HW,2013-06-06 23:09:00,
2013-06-06 19:14:00,65.3,51.0,29.98,North,0,0.0,0.0,60,0.00,,,0.00,WUHU216HW,2013-06-06 23:14:00,
2013-06-06 19:19:00,65.1,50.9,29.98,North,0,0.6,0.6,60,0.00,,,0.00,WUHU216HW,2013-06-06 23:19:00,
2013-06-06 19:24:00,64.4,50.6,29.98,North,0,0.0,2.0,61,0.00,,,0.00,WUHU216HW,2013-06-06 23:24:00,
2013-06-06 19:29:00,64.2,50.4,29.98,NNE,23,0.0,2.0,61,0.00,,,0.00,WUHU216HW,2013-06-06 23:29:00,
2013-06-06 19:34:00,64.0,50.2,29.98,NNE,23,2.0,2.0,61,0.00,,,0.00,WUHU216HW,2013-06-06 23:34:00,
2013-06-06 19:39:00,63.5,50.2,29.98,NNE,23,6.0,6.9,62,0.00,,,0.00,WUHU216HW,2013-06-06 23:39:00,
2013-06-06 19:44:00,62.9,49.7,29.98,NNE,23,1.1,6.9,62,0.00,,,0.00,WUHU216HW,2013-06-06 23:44:00,
2013-06-06 19:49:00,62.4,49.6,29.98,North,0,0.0,6.0,63,0.00,,,0.00,WUHU216HW,2013-06-06 23:49:00,
2013-06-06 19:54:00,62.2,49.4,29.98,NNE,23,0.0,1.1,63,0.00,,,0.00,WUHU216HW,2013-06-06 23:54:00,
2013-06-06 19:59:00,61.8,49.5,29.98,North,0,0.8,0.8,64,0.00,,,0.00,WUHU216HW,2013-06-06 23:59:00,
2013-06-06 20:04:00,61.8,49.5,29.98,NE,45,0.0,0.8,64,0.00,,,0.00,WUHU216HW,2013-06-07 00:04:00,
2013-06-06 20:09:00,61.5,49.4,29.98,North,0,1.1,3.3,64,0.00,,,0.00,WUHU216HW,2013-06-07 00:09:00,
2013-06-06 20:14:00,61.5,49.2,29.98,NE,45,0.0,3.3,64,0.00,,,0.00,WUHU216HW,2013-06-07 00:14:00,
2013-06-06 20:19:00,61.3,49.4,29.98,North,0,3.3,3.3,65,0.00,,,0.00,WUHU216HW,2013-06-07 00:19:00,
2013-06-06 20:24:00,60.9,49.1,29.98,NNE,23,0.0,3.3,65,0.00,,,0.00,WUHU216HW,2013-06-07 00:24:00,
2013-06-06 20:29:00,60.9,49.1,29.98,NNE,23,0.0,3.1,65,0.00,,,0.00,WUHU216HW,2013-06-07 00:29:00,
2013-06-06 20:34:00,60.9,49.1,29.98,North,0,0.0,3.1,65,0.00,,,0.00,WUHU216HW,2013-06-07 00:34:00,
2013-06-06 20:39:00,60.9,49.1,29.98,NNE,23,0.0,3.1,65,0.00,,,0.00,WUHU216HW,2013-06-07 00:39:00,
2013-06-06 20:44:00,60.9,49.1,29.98,NNE,23,0.0,3.1,65,0.00,,,0.00,WUHU216HW,2013-06-07 00:44:00,
2013-06-06 20:49:00,60.6,48.8,29.98,NNE,23,0.0,0.0,65,0.00,,,0.00,WUHU216HW,2013-06-07 00:49:00,
2013-06-06 20:54:00,60.6,48.8,29.98,NE,45,0.0,0.0,65,0.00,,,0.00,WUHU216HW,2013-06-07 00:54:00,
2013-06-06 20:59:00,60.6,48.8,29.98,NNW,338,0.0,0.0,65,0.00,,,0.00,WUHU216HW,2013-06-07 00:59:00,
2013-06-06 21:04:00,60.6,48.8,29.98,NE,45,0.0,0.0,65,0.00,,,0.00,WUHU216HW,2013-06-07 01:04:00,
2013-06-06 21:09:00,60.6,49.2,29.98,NNW,338,2.9,2.9,66,0.00,,,0.00,WUHU216HW,2013-06-07 01:09:00,
2013-06-06 21:14:00,60.4,49.0,29.98,NNE,23,0.0,2.9,66,0.00,,,0.00,WUHU216HW,2013-06-07 01:14:00,
2013-06-06 21:19:00,60.2,48.8,29.98,NNE,23,0.0,2.9,66,0.00,,,0.00,WUHU216HW,2013-06-07 01:19:00,
2013-06-06 21:24:00,60.0,48.7,29.98,NNE,23,0.0,0.0,66,0.00,,,0.00,WUHU216HW,2013-06-07 01:24:00,
2013-06-06 21:29:00,59.9,48.1,29.98,North,0,0.0,0.0,65,0.00,,,0.00,WUHU216HW,2013-06-07 01:29:00,
2013-06-06 21:34:00,59.9,48.5,29.98,North,0,0.0,0.0,66,0.00,,,0.00,WUHU216HW,2013-06-07 01:34:00,
2013-06-06 21:39:00,59.7,48.3,29.98,North,0,0.0,0.0,66,0.00,,,0.00,WUHU216HW,2013-06-07 01:39:00,
2013-06-06 21:44:00,59.7,48.3,29.98,North,0,0.0,0.0,66,0.00,,,0.00,WUHU216HW,2013-06-07 01:44:00,
2013-06-06 21:49:00,59.5,48.1,29.98,NNE,23,0.0,3.5,66,0.00,,,0.00,WUHU216HW,2013-06-07 01:49:00,
2013-06-06 21:54:00,59.5,48.1,29.98,NNW,338,0.0,3.5,66,0.00,,,0.00,WUHU216HW,2013-06-07 01:54:00,
2013-06-06 21:59:00,59.1,48.2,29.98,North,0,0.0,0.0,67,0.00,,,0.00,WUHU216HW,2013-06-07 01:59:00,
2013-06-06 22:04:00,59.1,48.2,29.99,North,0,0.8,0.8,67,0.00,,,0.00,WUHU216HW,2013-06-07 02:04:00,
2013-06-06 22:09:00,58.8,47.8,29.99,North,0,0.0,0.8,67,0.00,,,0.00,WUHU216HW,2013-06-07 02:09:00,
2013-06-06 22:14:00,58.6,48.0,29.99,North,0,0.0,0.0,68,0.00,,,0.00,WUHU216HW,2013-06-07 02:14:00,
2013-06-06 22:19:00,58.6,48.0,29.99,North,0,0.0,0.0,68,0.00,,,0.00,WUHU216HW,2013-06-07 02:19:00,
2013-06-06 22:24:00,58.2,47.9,29.99,North,0,0.0,0.0,68,0.00,,,0.00,WUHU216HW,2013-06-07 02:24:00,
2013-06-06 22:29:00,58.2,47.7,29.99,North,0,0.0,0.0,68,0.00,,,0.00,WUHU216HW,2013-06-07 02:29:00,
2013-06-06 22:34:00,58.1,47.5,29.99,North,0,0.0,0.0,68,0.00,,,0.00,WUHU216HW,2013-06-07 02:34:00,
2013-06-06 22:39:00,57.9,47.7,29.99,North,0,0.0,0.0,69,0.00,,,0.00,WUHU216HW,2013-06-07 02:39:00,
2013-06-06 22:44:00,57.9,47.7,30.00,NNW,338,0.0,0.0,69,0.00,,,0.00,WUHU216HW,2013-06-07 02:44:00,
2013-06-06 22:49:00,57.9,47.7,30.00,North,0,0.0,0.0,69,0.00,,,0.00,WUHU216HW,2013-06-07 02:49:00,
2013-06-06 22:54:00,57.7,47.6,30.01,NNW,338,0.0,0.0,69,0.00,,,0.00,WUHU216HW,2013-06-07 02:54:00,
2013-06-06 22:59:00,57.7,47.6,30.00,NNW,338,0.0,0.0,69,0.00,,,0.00,WUHU216HW,2013-06-07 02:59:00,
2013-06-06 23:04:00,57.7,47.6,30.00,NNW,338,0.0,0.0,69,0.00,,,0.00,WUHU216HW,2013-06-07 03:04:00,
2013-06-06 23:09:00,57.5,47.8,30.00,NNW,338,0.0,0.0,70,0.00,,,0.00,WUHU216HW,2013-06-07 03:09:00,
2013-06-06 23:14:00,57.5,47.8,30.00,NNW,338,0.0,0.0,70,0.00,,,0.00,WUHU216HW,2013-06-07 03:14:00,
2013-06-06 23:19:00,57.3,47.6,30.00,NNW,338,0.0,0.0,70,0.00,,,0.00,WUHU216HW,2013-06-07 03:19:00,
2013-06-06 23:24:00,57.3,47.6,30.00,NNW,338,0.0,0.0,70,0.00,,,0.00,WUHU216HW,2013-06-07 03:24:00,
2013-06-06 23:29:00,57.0,47.3,30.00,NNW,338,0.0,0.0,70,0.00,,,0.00,WUHU216HW,2013-06-07 03:29:00,
2013-06-06 23:34:00,57.0,47.3,30.00,NNW,338,0.0,0.0,70,0.00,,,0.00,WUHU216HW,2013-06-07 03:34:00,
2013-06-06 23:39:00,57.0,47.6,30.00,North,0,0.0,0.0,71,0.00,,,0.00,WUHU216HW,2013-06-07 03:39:00,
2013-06-06 23:44:00,57.0,47.6,30.00,North,0,0.0,0.0,71,0.00,,,0.00,WUHU216HW,2013-06-07 03:44:00,
2013-06-06 23:49:00,56.8,47.4,29.99,North,0,0.0,0.0,71,0.00,,,0.00,WUHU216HW,2013-06-07 03:49:00,
2013-06-06 23:54:00,56.8,47.4,29.99,North,0,0.0,0.0,71,0.00,,,0.00,WUHU216HW,2013-06-07 03:54:00,
2013-06-06 23:59:00,56.4,47.1,29.99,North,0,0.0,0.0,71,0.00,,,0.00,WUHU216HW,2013-06-07 03:59:00,